Regional Weather Roundup
Issued by NWS

Home | Current Version | Previous Version | Text Only | Print | Product List | Glossary On
Versions: 1 2 3 4 5 6 7 8 9 10 11 12 13 14 15 16 17 18 19 20 21 22 23 24 25 26 27 28 29 30 31 32 33 34 35 36 37 38 39 40 41 42 43 44 45 46 47 48 49 50
000
ASHW40 PHFO 180543
RWRHI

WEATHER ROUNDUP FOR HAWAII
NATIONAL WEATHER SERVICE HONOLULU HI
700 PM HST TUE OCT 17 2017

THIS IS AN AUTOMATED REPORT THAT HAS NOT BEEN QUALITY CONTROLLED.

NOTE..."FAIR" INDICATES FEW OR NO CLOUDS BELOW 12,000 FEET WITH NO
SIGNIFICANT WEATHER AND/OR OBSTRUCTIONS TO VISIBILITY.

* - THESE SITES REPORT LIMITED FIELDS
# - BUOY DATA PROVIDED BY PACIFIC ISLANDS OCEAN OBSERVING SYSTEM.

HIZ001>004-180600-
KAUAI-NIIHAU-

CITY           SKY/WX    TMP DP  RH WIND       PRES   REMARKS
LIHUE APT      MOCLDY    77  69  76 NE25G32   30.09R
PORT ALLEN*      N/A     77 N/A N/A NE21G29     N/A
POIPU*           N/A     77 N/A N/A NE13G30     N/A
PRINCEVILLE*     N/A     77 N/A N/A E10G20      N/A
KOKOLE POINT*  NOT AVBL
MOLOAA DAIRY*    N/A     75  66  73 E5G17       N/A
WAIMEA HTS*      N/A    N/A N/A N/A E12G25      N/A
PUU OPAE*        N/A     70  57  64 E6G16       N/A
PUU LUA*       NOT AVBL
MAKAHA RIDGE*    N/A     70  59  68 NE3G14      N/A
$$

HIZ005>011-180600-
OAHU-

CITY           SKY/WX    TMP DP  RH WIND       PRES   REMARKS
HONOLULU       PTCLDY    79  62  56 NE14      30.04R
KALAELOA       PTCLDY    79  60  52 E13G23    30.05R
KANEOHE MCB    MOCLDY    80  66  62 NE16G28   30.04R
WHEELER FIELD  MOCLDY    74  64  71 NE16G24   30.06R
BELLOWS*         N/A    N/A N/A N/A NE28G33     N/A
KAHUKU*          N/A    N/A N/A N/A NE10G23     N/A
WHEELER*         N/A    N/A N/A N/A NE8G18      N/A
WAIANAE HARBOR   N/A    N/A N/A N/A NE10G31     N/A
DILLINGHAM*      N/A     84  75  74 W6G15       N/A  HX  92
KAHUKU TRN*      N/A     81  70  69 W15G29      N/A
KAWAILOA*        N/A     72  63  73 NE10G24     N/A
KII*             N/A     79  66  65 E23G32      N/A
MAKUA RANGE*     N/A     86  72  62 SW8G22      N/A  HX  92
OAHU FOREST NW   N/A     70  63  78 E18G40      N/A
SCHOFIELD BRK*   N/A    N/A N/A N/A MISG        N/A
SCHOFIELD S*   NOT AVBL
WAIANAE VLY*     N/A     73  63  68 SW7G17      N/A
KUAOKALA*        N/A     73  64  73 E22G36      N/A
HONOULIUULI*   NOT AVBL
MOKUOLOE IS*   NOT AVBL
PALEHUA*         N/A     66  57  72 NE12G25     N/A
WAIAWA PHB*    NOT AVBL
$$

HIZ012>013-180600-
MOLOKAI-

CITY           SKY/WX    TMP DP  RH WIND       PRES   REMARKS
MOLOKAI AIRPT  MOCLDY    76  65  68 NE16G29   30.06R
KALAUPAPA      NOT AVBL
MAKAPULAPAI*     N/A     77  66  69 E25G35      N/A
MOLOKAI 1*       N/A     64  59  82 E3G17       N/A
PUU ALII*        N/A     57  57  99 N5G17       N/A
$$

HIZ016-180600-
KAHOOLAWE-

CITY           SKY/WX    TMP DP  RH WIND       PRES   REMARKS
KAHOOLAWE*     NOT AVBL
HAKIOAWA*        N/A     71  63  75 MISG      30.44R
HONOKANAIA*      N/A     78  65  64 E5G18     29.94R
KANELOA*         N/A     75  61  60 E22G41    30.05R
KEALIALALO*    NOT AVBL
LUA MAKIKA*    NOT AVBL
$$

HIZ014>015-180600-
LANAI-

CITY           SKY/WX    TMP DP  RH WIND       PRES   REMARKS
LANAI CITY     FAIR      72  61  68 E17G32    30.08R
LANAI 1*       NOT AVBL
$$

HIZ017>028-180600-
MAUI-

CITY           SKY/WX    TMP DP  RH WIND       PRES   REMARKS
KAHULUI        PTCLDY    76  64  66 NE10G17   30.04R
KAPALUA-W MAUI NOT AVBL
HANA AIRPORT   NOT AVBL
HANA*            N/A     79 N/A N/A NE13G20     N/A
HALEAKALA SUMM   N/A     46   1  15 E22G40      N/A
MAALAEA BAY*     N/A     73 N/A N/A NE16G23     N/A
HALEAKALA*     NOT AVBL
KAUPO GAP*     NOT AVBL
KULA 1*          N/A     48  46  93 SE6         N/A
$$

HIZ023>026-180600-
BIG ISLAND OF HAWAII COAST AND LOWER SLOPES-

CITY           SKY/WX    TMP DP  RH WIND       PRES   REMARKS
KAILUA KONA    PTCLDY    80  64  58 S9        29.94R
HILO           MOCLDY    75  65  70 N5        30.06R
HONOKAA*         N/A     68 N/A N/A VRB1        N/A
KAWAIHAE MWT*    N/A     81 N/A N/A E15G37      N/A
KAWAIHAE*        N/A     81 N/A N/A SW9       29.94S
SOUTH POINT*     N/A     73 N/A N/A N20G32      N/A
UPOLU AIRPORT* NOT AVBL
KAMUELA*       NOT AVBL
HAKALAU*         N/A     50  49  96 N5G10       N/A
KALOKO-HONOKO*   N/A     75  66  73 E6        29.95R
PALI 2*          N/A     63  57  82 S22G39      N/A
KEALAKOMO*       N/A     75  63  64 NE20G29     N/A
KAUPULEHU*       N/A     73  57  56 E5          N/A
KAPAPALA*        N/A     67  63  87 E2G9        N/A
LOWER KAHUKU*    N/A    N/A N/A N/A VRB2G9      N/A
PUHE CS*         N/A     79  57  47 E15G35      N/A
PUHO CS*         N/A     74  69  86 E3          N/A
PTA KEAMUKU*     N/A     63  54  72 E20G37      N/A
WAIKOLOA*        N/A     73  59  60 E18G37      N/A
$$

HIZ027>028-180600-
BIG ISLAND OF HAWAII INTERIOR AND SUMMMITS-

CITY           SKY/WX    TMP DP  RH WIND       PRES   REMARKS
BRADSHAW FIELD CLOUDY    51  44  76 CALM      30.28S
MK VISITOR CEN   N/A     57   9  14 E10         N/A
MAUNA KEA*       N/A     39   3  22 N26         N/A  WCI  28
MAUNA LOA*       N/A     48   0  13 MISG        N/A
MAUNA LOA 1*   NOT AVBL
PTA KIPUKA*      N/A     61  57  88 NE2G8       N/A
PTA RANGE 17*    N/A     70  59  68 W15G26      N/A
PTA WEST*        N/A     79  63  57 SE15G26     N/A
NENE CABIN*      N/A     50  50 100 NW3         N/A
AHUMOA*          N/A     48  46  93 E3          N/A
PTA PORTABLE*  NOT AVBL
PUU MALI*        N/A     55  41  58 E18G38      N/A
$$

HIC003-180600-
NORTHWEST ISLANDS-

CITY           SKY/WX    TMP DP  RH WIND       PRES   REMARKS
MIDWAY ISLAND  CLOUDY    79  72  78 E18       30.20R
MIDWAY NOS*      N/A     79 N/A N/A MISG      30.20R
FRENCH FRIGATE NOT AVBL
$$

PHZ110>124-180-180600-
BUOY REPORTS

STATION/POSITION TIME  TEMP    WIND        PRES    WAVE   SWELL
                       AIR SEA DIR/SP/G            HT/PER HT/DIR
                 (UTC) (F)     (DEG/KT/KT) (MB)    (FT/S) (FT/D)
BUOY 51001       0520   79 81   70/ 21/ 25 1020.7
BUOY 51101       0450   79 81   60/ 21/ 27 1020.3R  10/ 9   3/110
BUOY 51100       NOT AVBL
BUOY 51002       0520   80 80   70/ 21/ 27 1014.4
BUOY 51003       0450   81 82   60/ 21/ 27 1014.9R  11/ 9   8/ 80
BUOY 51004       0520   79 80   50/ 19/ 25 1015.0
WAIMEA BAY#      0502      78                N/A     8/ 9   2/320
MOKAPU POINT#    0504      80                N/A     9/ 9   3/ 30
LANAI#           NOT AVBL
BARBERS PT 2#    NOT AVBL
PAUWELA#         NOT AVBL
HILO#            0457      80                N/A     8/ 9   2/ 70
KANEOHE BAY#     NOT AVBL
KANEOHE BAY 2#   NOT AVBL
HANALEI#         0522      81                N/A    10/ 8   2/ 80
KAHULUI HARBOR   0512   76 79   50/ 11/ 15 1017.8
HONOLULU HARBOR  0518   79 80   70/  9/ 16 1018.4
PEARL HARBOR#    0500      80                N/A     4/14   2/160
KILO NALU        NOT AVBL
HILO HARBOR      0512   74 77  290/  8/ 10 1017.6
MOKUOLOE         0436   79 80   70/ 19/ 24 1017.9R
NAWILIWILI       0518   78      50/ 17/ 25 1018.7
WHOTS BUOY       NOT AVBL
BUOY 51028       NOT AVBL
$$

......................KEY........................................
  SKY/WX - SKY CONDITIONS/PRESENT WEATHER
  TMP    - TEMPERATURE IN FAHRENHEIT
  DWPT   - DEWPOINT IN FAHRENHEIT
  RH     - RELATIVE HUMIDITY IN PERCENT
  WIND   - DIRECTION AND SPEED /MPH FOR ISLANDS...KTS FOR BUOYS/
  PRES   - MEAN SEA LEVEL PRESSURE IN INCHES OF HG
  VSB    - VISIBILITY IN MILES
  HX     - HEAT INDEX
  WCI    - WIND CHILL INDEX
  VRB    - VARIABLE WIND DIRECTION
  N/A    - NOT AVAILABLE



USA.gov is the U.S. government's official web portal to all federal, state and local government web resources and services.